Year,Month,Day,Hour,Minute,Value (Times are PST for windspeed in km/hr)
2013,09,29,00,00,6.00
2013,09,29,00,01,10.70
2013,09,29,00,02,7.60
2013,09,29,00,03,7.20
2013,09,29,00,04,5.30
2013,09,29,00,05,8.10
2013,09,29,00,06,5.90
2013,09,29,00,07,5.30
2013,09,29,00,08,7.50
2013,09,29,00,09,4.40
2013,09,29,00,10,3.80
2013,09,29,00,11,6.70
2013,09,29,00,12,3.10
2013,09,29,00,13,1.70
2013,09,29,00,14,3.80
2013,09,29,00,15,6.10
2013,09,29,00,16,5.70
2013,09,29,00,17,7.60
2013,09,29,00,18,12.00
2013,09,29,00,19,9.40
2013,09,29,00,20,6.60
2013,09,29,00,21,8.40
2013,09,29,00,22,8.60
2013,09,29,00,23,8.40
2013,09,29,00,24,10.20
2013,09,29,00,25,9.60
2013,09,29,00,26,8.50
2013,09,29,00,27,6.40
2013,09,29,00,28,4.70
2013,09,29,00,29,2.20
2013,09,29,00,30,2.60
2013,09,29,00,31,8.10
2013,09,29,00,32,8.40
2013,09,29,00,33,7.00
2013,09,29,00,34,7.10
2013,09,29,00,35,9.30
2013,09,29,00,36,7.40
2013,09,29,00,37,6.10
2013,09,29,00,38,2.50
2013,09,29,00,39,0.90
2013,09,29,00,40,0.10
2013,09,29,00,41,5.40
2013,09,29,00,42,7.50
2013,09,29,00,43,6.70
2013,09,29,00,44,5.10
2013,09,29,00,45,7.40
2013,09,29,00,46,7.10
2013,09,29,00,47,6.70
2013,09,29,00,48,6.10
2013,09,29,00,49,5.70
2013,09,29,00,50,4.60
2013,09,29,00,51,5.10
2013,09,29,00,52,5.30
2013,09,29,00,53,2.40
2013,09,29,00,54,6.30
2013,09,29,00,55,7.30
2013,09,29,00,56,6.80
2013,09,29,00,57,8.30
2013,09,29,00,58,8.10
2013,09,29,00,59,4.50
2013,09,29,01,00,6.00
2013,09,29,01,01,6.00
2013,09,29,01,02,9.40
2013,09,29,01,03,5.10
2013,09,29,01,04,7.80
2013,09,29,01,05,9.60
2013,09,29,01,06,6.40
2013,09,29,01,07,9.30
2013,09,29,01,08,4.90
2013,09,29,01,09,8.80
2013,09,29,01,10,6.80
2013,09,29,01,11,7.50
2013,09,29,01,12,7.50
2013,09,29,01,13,9.80
2013,09,29,01,14,5.40
2013,09,29,01,15,5.60
2013,09,29,01,16,6.30
2013,09,29,01,17,7.40
2013,09,29,01,18,6.50
2013,09,29,01,19,9.20
2013,09,29,01,20,5.30
2013,09,29,01,21,7.40
2013,09,29,01,22,5.20
2013,09,29,01,23,6.50
2013,09,29,01,24,6.30
2013,09,29,01,25,1.90
2013,09,29,01,26,1.00
2013,09,29,01,27,2.20
2013,09,29,01,28,3.10
2013,09,29,01,29,0.80
2013,09,29,01,30,1.80
2013,09,29,01,31,3.40
2013,09,29,01,32,5.30
2013,09,29,01,33,7.40
2013,09,29,01,34,11.40
2013,09,29,01,35,14.30
2013,09,29,01,36,10.80
2013,09,29,01,37,11.70
2013,09,29,01,38,15.10
2013,09,29,01,39,11.60
2013,09,29,01,40,9.60
2013,09,29,01,41,10.20
2013,09,29,01,42,11.40
2013,09,29,01,43,12.60
2013,09,29,01,44,9.30
2013,09,29,01,45,6.40
2013,09,29,01,46,5.90
2013,09,29,01,47,1.70
2013,09,29,01,48,5.10
2013,09,29,01,49,4.10
2013,09,29,01,50,3.10
2013,09,29,01,51,2.70
2013,09,29,01,52,6.60
2013,09,29,01,53,4.70
2013,09,29,01,54,4.70
2013,09,29,01,55,6.30
2013,09,29,01,56,5.40
2013,09,29,01,57,4.30
2013,09,29,01,58,2.90
2013,09,29,01,59,6.60
2013,09,29,02,00,5.90
2013,09,29,02,01,1.00
2013,09,29,02,02,6.70
2013,09,29,02,03,5.00
2013,09,29,02,04,0.80
2013,09,29,02,05,0.20
2013,09,29,02,06,5.80
2013,09,29,02,07,3.80
2013,09,29,02,08,6.60
2013,09,29,02,09,3.10
2013,09,29,02,10,7.20
2013,09,29,02,11,6.40
2013,09,29,02,12,6.40
2013,09,29,02,13,6.90
2013,09,29,02,14,5.70
2013,09,29,02,15,3.40
2013,09,29,02,16,6.90
2013,09,29,02,17,1.50
2013,09,29,02,18,7.20
2013,09,29,02,19,6.50
2013,09,29,02,20,7.20
2013,09,29,02,21,10.10
2013,09,29,02,22,10.00
2013,09,29,02,23,10.80
2013,09,29,02,24,7.50
2013,09,29,02,25,8.40
2013,09,29,02,26,7.80
2013,09,29,02,27,6.60
2013,09,29,02,28,8.60
2013,09,29,02,29,6.50
2013,09,29,02,30,2.90
2013,09,29,02,31,4.30
2013,09,29,02,32,4.30
2013,09,29,02,33,2.80
2013,09,29,02,34,4.20
2013,09,29,02,35,9.80
2013,09,29,02,36,9.80
2013,09,29,02,37,10.90
2013,09,29,02,38,9.40
2013,09,29,02,39,9.30
2013,09,29,02,40,7.60
2013,09,29,02,41,4.10
2013,09,29,02,42,7.30
2013,09,29,02,43,4.60
2013,09,29,02,44,7.90
2013,09,29,02,45,8.30
2013,09,29,02,46,11.40
2013,09,29,02,47,13.90
2013,09,29,02,48,8.50
2013,09,29,02,49,9.80
2013,09,29,02,50,15.70
2013,09,29,02,51,14.80
2013,09,29,02,52,16.20
2013,09,29,02,53,7.60
2013,09,29,02,54,12.50
2013,09,29,02,55,11.60
2013,09,29,02,56,11.30
2013,09,29,02,57,10.50
2013,09,29,02,58,8.70
2013,09,29,02,59,8.00
2013,09,29,03,00,7.30
2013,09,29,03,01,10.70
2013,09,29,03,02,7.60
2013,09,29,03,03,8.70
2013,09,29,03,04,5.20
2013,09,29,03,05,2.30
2013,09,29,03,06,4.40
2013,09,29,03,07,5.70
2013,09,29,03,08,5.80
2013,09,29,03,09,2.90
2013,09,29,03,10,5.80
2013,09,29,03,11,5.20
2013,09,29,03,12,6.40
2013,09,29,03,13,8.10
2013,09,29,03,14,7.40
2013,09,29,03,15,10.70
2013,09,29,03,16,15.80
2013,09,29,03,17,10.20
2013,09,29,03,18,11.60
2013,09,29,03,19,7.90
2013,09,29,03,20,19.30
2013,09,29,03,21,19.50
2013,09,29,03,22,14.90
2013,09,29,03,23,12.30
2013,09,29,03,24,13.30
2013,09,29,03,25,12.00
2013,09,29,03,26,11.90
2013,09,29,03,27,7.30
2013,09,29,03,28,5.00
2013,09,29,03,29,4.00
2013,09,29,03,30,4.10
2013,09,29,03,31,2.20
2013,09,29,03,32,2.60
2013,09,29,03,33,1.40
2013,09,29,03,34,1.20
2013,09,29,03,35,0.10
2013,09,29,03,36,0.50
2013,09,29,03,37,2.40
2013,09,29,03,38,0.30
2013,09,29,03,39,0.20
2013,09,29,03,40,0.00
2013,09,29,03,41,0.00
2013,09,29,03,42,0.00
2013,09,29,03,43,0.20
2013,09,29,03,44,0.10
2013,09,29,03,45,0.10
2013,09,29,03,46,0.00
2013,09,29,03,47,1.30
2013,09,29,03,48,4.40
2013,09,29,03,49,0.80
2013,09,29,03,50,5.10
2013,09,29,03,51,5.50
2013,09,29,03,52,1.60
2013,09,29,03,53,2.00
2013,09,29,03,54,5.10
2013,09,29,03,55,7.70
2013,09,29,03,56,8.90
2013,09,29,03,57,5.40
2013,09,29,03,58,3.90
2013,09,29,03,59,6.10
2013,09,29,04,00,5.80
2013,09,29,04,01,2.70
2013,09,29,04,02,5.50
2013,09,29,04,03,5.50
2013,09,29,04,04,4.40
2013,09,29,04,05,2.10
2013,09,29,04,06,0.10
2013,09,29,04,07,0.10
2013,09,29,04,08,0.40
2013,09,29,04,09,3.00
2013,09,29,04,10,4.10
2013,09,29,04,11,2.30
2013,09,29,04,12,0.80
2013,09,29,04,13,5.80
2013,09,29,04,14,10.50
2013,09,29,04,15,7.40
2013,09,29,04,16,7.80
2013,09,29,04,17,9.70
2013,09,29,04,18,6.20
2013,09,29,04,19,3.80
2013,09,29,04,20,7.20
2013,09,29,04,21,5.10
2013,09,29,04,22,7.00
2013,09,29,04,23,2.30
2013,09,29,04,24,3.80
2013,09,29,04,25,5.10
2013,09,29,04,26,5.30
2013,09,29,04,27,3.40
2013,09,29,04,28,3.20
2013,09,29,04,29,2.80
2013,09,29,04,30,1.80
2013,09,29,04,31,1.20
2013,09,29,04,32,3.70
2013,09,29,04,33,2.50
2013,09,29,04,34,2.60
2013,09,29,04,35,4.10
2013,09,29,04,36,6.00
2013,09,29,04,37,4.00
2013,09,29,04,38,1.90
2013,09,29,04,39,2.60
2013,09,29,04,40,1.80
2013,09,29,04,41,3.40
2013,09,29,04,42,0.50
2013,09,29,04,43,2.10
2013,09,29,04,44,2.50
2013,09,29,04,45,6.70
2013,09,29,04,46,5.10
2013,09,29,04,47,2.40
2013,09,29,04,48,3.20
2013,09,29,04,49,2.40
2013,09,29,04,50,5.00
2013,09,29,04,51,7.80
2013,09,29,04,52,6.70
2013,09,29,04,53,2.00
2013,09,29,04,54,6.60
2013,09,29,04,55,6.20
2013,09,29,04,56,6.70
2013,09,29,04,57,7.00
2013,09,29,04,58,4.80
2013,09,29,04,59,4.80
2013,09,29,05,00,11.20
2013,09,29,05,01,5.60
2013,09,29,05,02,7.00
2013,09,29,05,03,7.70
2013,09,29,05,04,11.80
2013,09,29,05,05,11.30
2013,09,29,05,06,12.60
2013,09,29,05,07,12.40
2013,09,29,05,08,9.80
2013,09,29,05,09,9.10
2013,09,29,05,10,10.10
2013,09,29,05,11,9.10
2013,09,29,05,12,11.00
2013,09,29,05,13,9.30
2013,09,29,05,14,9.00
2013,09,29,05,15,8.20
2013,09,29,05,16,11.30
2013,09,29,05,17,11.60
2013,09,29,05,18,14.60
2013,09,29,05,19,13.60
2013,09,29,05,20,12.50
2013,09,29,05,21,12.00
2013,09,29,05,22,11.20
2013,09,29,05,23,8.40
2013,09,29,05,24,9.90
2013,09,29,05,25,10.70
2013,09,29,05,26,9.80
2013,09,29,05,27,11.30
2013,09,29,05,28,10.50
2013,09,29,05,29,10.80
2013,09,29,05,30,9.00
2013,09,29,05,31,10.70
2013,09,29,05,32,9.10
2013,09,29,05,33,12.30
2013,09,29,05,34,13.30
2013,09,29,05,35,11.60
2013,09,29,05,36,12.20
2013,09,29,05,37,10.40
2013,09,29,05,38,12.70
2013,09,29,05,39,11.70
2013,09,29,05,40,12.20
2013,09,29,05,41,14.10
2013,09,29,05,42,11.20
2013,09,29,05,43,12.90
2013,09,29,05,44,11.70
2013,09,29,05,45,11.50
2013,09,29,05,46,14.00
2013,09,29,05,47,10.30
2013,09,29,05,48,17.70
2013,09,29,05,49,10.00
2013,09,29,05,50,14.20
2013,09,29,05,51,11.10
2013,09,29,05,52,8.10
2013,09,29,05,53,3.00
2013,09,29,05,54,4.20
2013,09,29,05,55,10.20
2013,09,29,05,56,9.70
2013,09,29,05,57,6.40
2013,09,29,05,58,3.40
2013,09,29,05,59,7.20
2013,09,29,06,00,5.40
2013,09,29,06,01,7.00
2013,09,29,06,02,4.30
2013,09,29,06,03,8.00
2013,09,29,06,04,5.20
2013,09,29,06,05,1.20
2013,09,29,06,06,1.50
2013,09,29,06,07,3.10
2013,09,29,06,08,4.30
2013,09,29,06,09,2.50
2013,09,29,06,10,0.80
2013,09,29,06,11,1.00
2013,09,29,06,12,0.50
2013,09,29,06,13,0.00
2013,09,29,06,14,0.00
2013,09,29,06,15,0.20
2013,09,29,06,16,0.50
2013,09,29,06,17,0.00
2013,09,29,06,18,0.50
2013,09,29,06,19,0.10
2013,09,29,06,20,0.20
2013,09,29,06,21,1.30
2013,09,29,06,22,4.30
2013,09,29,06,23,4.20
2013,09,29,06,24,3.40
2013,09,29,06,25,2.60
2013,09,29,06,26,1.00
2013,09,29,06,27,2.70
2013,09,29,06,28,4.60
2013,09,29,06,29,2.90
2013,09,29,06,30,3.80
2013,09,29,06,31,5.90
2013,09,29,06,32,5.10
2013,09,29,06,33,6.80
2013,09,29,06,34,5.80
2013,09,29,06,35,5.90
2013,09,29,06,36,9.70
2013,09,29,06,37,7.70
2013,09,29,06,38,4.00
2013,09,29,06,39,7.40
2013,09,29,06,40,8.20
2013,09,29,06,41,6.20
2013,09,29,06,42,6.70
2013,09,29,06,43,9.90
2013,09,29,06,44,10.30
2013,09,29,06,45,7.40
2013,09,29,06,46,2.20
2013,09,29,06,47,3.50
2013,09,29,06,48,5.40
2013,09,29,06,49,6.20
2013,09,29,06,50,5.70
2013,09,29,06,51,6.10
2013,09,29,06,52,4.70
2013,09,29,06,53,5.20
2013,09,29,06,54,7.40
2013,09,29,06,55,2.10
2013,09,29,06,56,8.00
2013,09,29,06,57,8.10
2013,09,29,06,58,6.70
2013,09,29,06,59,7.90
2013,09,29,07,00,8.90
2013,09,29,07,01,8.10
2013,09,29,07,02,10.10
2013,09,29,07,03,9.00
2013,09,29,07,04,5.50
2013,09,29,07,05,8.90
2013,09,29,07,06,8.80
2013,09,29,07,07,14.40
2013,09,29,07,08,11.60
2013,09,29,07,09,11.50
2013,09,29,07,10,9.40
2013,09,29,07,11,10.80
2013,09,29,07,12,9.90
2013,09,29,07,13,10.40
2013,09,29,07,14,11.20
2013,09,29,07,15,6.90
2013,09,29,07,16,10.80
2013,09,29,07,17,10.20
2013,09,29,07,18,9.50
2013,09,29,07,19,9.50
2013,09,29,07,20,8.10
2013,09,29,07,21,8.60
2013,09,29,07,22,9.20
2013,09,29,07,23,11.40
2013,09,29,07,24,10.20
2013,09,29,07,25,10.00
2013,09,29,07,26,9.10
2013,09,29,07,27,7.70
2013,09,29,07,28,9.90
2013,09,29,07,29,9.20
2013,09,29,07,30,10.60
2013,09,29,07,31,9.60
2013,09,29,07,32,8.80
2013,09,29,07,33,4.60
2013,09,29,07,34,7.60
2013,09,29,07,35,6.20
2013,09,29,07,36,5.40
2013,09,29,07,37,4.80
2013,09,29,07,38,4.80
2013,09,29,07,39,4.80
2013,09,29,07,40,4.80
2013,09,29,07,41,4.80
2013,09,29,07,42,4.80
2013,09,29,07,43,4.80
2013,09,29,07,44,2.40
2013,09,29,07,45,3.00
2013,09,29,07,46,4.40
2013,09,29,07,47,3.00
2013,09,29,07,48,2.70
2013,09,29,07,49,3.50
2013,09,29,07,50,7.80
2013,09,29,07,51,7.60
2013,09,29,07,52,8.20
2013,09,29,07,53,8.00
2013,09,29,07,54,8.50
2013,09,29,07,55,6.10
2013,09,29,07,56,5.90
2013,09,29,07,57,7.40
2013,09,29,07,58,6.80
2013,09,29,07,59,1.90
2013,09,29,08,00,4.00
2013,09,29,08,01,5.20
2013,09,29,08,02,3.70
2013,09,29,08,03,2.90
2013,09,29,08,04,3.80
2013,09,29,08,05,4.30
2013,09,29,08,06,2.10
2013,09,29,08,07,3.50
2013,09,29,08,08,4.90
2013,09,29,08,09,5.40
2013,09,29,08,10,2.70
2013,09,29,08,11,3.10
2013,09,29,08,12,4.10
2013,09,29,08,13,5.30
2013,09,29,08,14,4.10
2013,09,29,08,15,1.80
2013,09,29,08,16,7.30
2013,09,29,08,17,8.00
2013,09,29,08,18,6.60
2013,09,29,08,19,8.40
2013,09,29,08,20,7.70
2013,09,29,08,21,5.80
2013,09,29,08,22,4.00
2013,09,29,08,23,5.00
2013,09,29,08,24,4.40
2013,09,29,08,25,2.90
2013,09,29,08,26,6.70
2013,09,29,08,27,7.30
2013,09,29,08,28,7.30
2013,09,29,08,29,6.40
2013,09,29,08,30,4.80
2013,09,29,08,31,3.10
2013,09,29,08,32,1.00
2013,09,29,08,33,1.00
2013,09,29,08,34,5.00
2013,09,29,08,35,6.50
2013,09,29,08,36,5.20
2013,09,29,08,37,3.50
2013,09,29,08,38,5.90
2013,09,29,08,39,6.90
2013,09,29,08,40,5.60
2013,09,29,08,41,4.40
2013,09,29,08,42,9.00
2013,09,29,08,43,8.10
2013,09,29,08,44,7.70
2013,09,29,08,45,8.40
2013,09,29,08,46,12.30
2013,09,29,08,47,8.10
2013,09,29,08,48,7.40
2013,09,29,08,49,7.00
2013,09,29,08,50,6.30
2013,09,29,08,51,5.50
2013,09,29,08,52,3.40
2013,09,29,08,53,6.60
2013,09,29,08,54,6.50
2013,09,29,08,55,4.50
2013,09,29,08,56,5.30
2013,09,29,08,57,6.00
2013,09,29,08,58,5.30
2013,09,29,08,59,5.20
2013,09,29,09,00,3.90
2013,09,29,09,01,6.60
2013,09,29,09,02,6.30
2013,09,29,09,03,6.30
2013,09,29,09,04,6.50
2013,09,29,09,05,3.50
2013,09,29,09,06,5.40
2013,09,29,09,07,10.10
2013,09,29,09,08,6.90
2013,09,29,09,09,6.30
2013,09,29,09,10,5.80
2013,09,29,09,11,3.80
2013,09,29,09,12,4.50
2013,09,29,09,13,5.90
2013,09,29,09,14,3.20
2013,09,29,09,15,5.00
2013,09,29,09,16,6.10
2013,09,29,09,17,4.90
2013,09,29,09,18,3.80
2013,09,29,09,19,8.10
2013,09,29,09,20,5.40
2013,09,29,09,21,4.40
2013,09,29,09,22,7.30
2013,09,29,09,23,5.40
2013,09,29,09,24,7.40
2013,09,29,09,25,3.80
2013,09,29,09,26,3.00
2013,09,29,09,27,2.70
2013,09,29,09,28,3.70
2013,09,29,09,29,2.60
2013,09,29,09,30,4.70
2013,09,29,09,31,12.00
2013,09,29,09,32,12.20
2013,09,29,09,33,13.80
2013,09,29,09,34,12.30
2013,09,29,09,35,10.70
2013,09,29,09,36,15.20
2013,09,29,09,37,7.30
2013,09,29,09,38,5.60
2013,09,29,09,39,7.70
2013,09,29,09,40,10.50
2013,09,29,09,41,8.10
2013,09,29,09,42,6.30
2013,09,29,09,43,10.20
2013,09,29,09,44,8.20
2013,09,29,09,45,6.70
2013,09,29,09,46,8.50
2013,09,29,09,47,8.70
2013,09,29,09,48,10.50
2013,09,29,09,49,9.40
2013,09,29,09,50,6.40
2013,09,29,09,51,7.00
2013,09,29,09,52,6.40
2013,09,29,09,53,9.00
2013,09,29,09,54,7.10
2013,09,29,09,55,6.70
2013,09,29,09,56,10.50
2013,09,29,09,57,8.20
2013,09,29,09,58,9.60
2013,09,29,09,59,9.70
2013,09,29,10,00,6.80
2013,09,29,10,01,10.80
2013,09,29,10,02,8.90
2013,09,29,10,03,8.60
2013,09,29,10,04,8.80
2013,09,29,10,05,8.10
2013,09,29,10,06,6.60
2013,09,29,10,07,12.20
2013,09,29,10,08,7.50
2013,09,29,10,09,6.30
2013,09,29,10,10,8.90
2013,09,29,10,11,9.10
2013,09,29,10,12,8.10
2013,09,29,10,13,7.20
2013,09,29,10,14,14.40
2013,09,29,10,15,13.50
2013,09,29,10,16,16.30
2013,09,29,10,17,13.40
2013,09,29,10,18,15.50
2013,09,29,10,19,13.00
2013,09,29,10,20,12.50
2013,09,29,10,21,9.80
2013,09,29,10,22,9.20
2013,09,29,10,23,7.20
2013,09,29,10,24,11.10
2013,09,29,10,25,8.40
2013,09,29,10,26,10.20
2013,09,29,10,27,7.20
2013,09,29,10,28,9.40
2013,09,29,10,29,8.40
2013,09,29,10,30,7.50
2013,09,29,10,31,8.30
2013,09,29,10,32,7.40
2013,09,29,10,33,7.10
2013,09,29,10,34,9.70
2013,09,29,10,35,7.30
2013,09,29,10,36,12.90
2013,09,29,10,37,10.00
2013,09,29,10,38,8.70
2013,09,29,10,39,10.10
2013,09,29,10,40,11.30
2013,09,29,10,41,11.20
2013,09,29,10,42,10.60
2013,09,29,10,43,11.00
2013,09,29,10,44,8.40
2013,09,29,10,45,8.10
2013,09,29,10,46,6.40
2013,09,29,10,47,9.80
2013,09,29,10,48,8.80
2013,09,29,10,49,10.10
2013,09,29,10,50,8.60
2013,09,29,10,51,7.40
2013,09,29,10,52,9.10
2013,09,29,10,53,12.60
2013,09,29,10,54,10.30
2013,09,29,10,55,4.60
2013,09,29,10,56,8.90
2013,09,29,10,57,7.30
2013,09,29,10,58,9.90
2013,09,29,10,59,6.10
2013,09,29,11,00,8.10
2013,09,29,11,01,9.40
2013,09,29,11,02,5.40
2013,09,29,11,03,7.40
2013,09,29,11,04,6.10
2013,09,29,11,05,4.70
2013,09,29,11,06,2.70
2013,09,29,11,07,6.70
2013,09,29,11,08,4.80
2013,09,29,11,09,0.00
2013,09,29,11,10,1.80
2013,09,29,11,11,5.10
2013,09,29,11,12,3.30
2013,09,29,11,13,4.60
2013,09,29,11,14,2.50
2013,09,29,11,15,3.60
2013,09,29,11,16,4.10
2013,09,29,11,17,5.30
2013,09,29,11,18,6.40
2013,09,29,11,19,5.30
2013,09,29,11,20,3.90
2013,09,29,11,21,3.90
2013,09,29,11,22,4.10
2013,09,29,11,23,1.50
2013,09,29,11,24,2.80
2013,09,29,11,25,3.10
2013,09,29,11,26,4.00
2013,09,29,11,27,1.90
2013,09,29,11,28,4.00
2013,09,29,11,29,4.10
2013,09,29,11,30,3.10
2013,09,29,11,31,0.40
2013,09,29,11,32,5.30
2013,09,29,11,33,7.30
2013,09,29,11,34,3.00
2013,09,29,11,35,5.00
2013,09,29,11,36,0.80
2013,09,29,11,37,5.50
2013,09,29,11,38,2.10
2013,09,29,11,39,0.10
2013,09,29,11,40,0.00
2013,09,29,11,41,0.20
2013,09,29,11,42,2.20
2013,09,29,11,43,2.80
2013,09,29,11,44,5.40
2013,09,29,11,45,8.90
2013,09,29,11,46,9.40
2013,09,29,11,47,11.90
2013,09,29,11,48,7.70
2013,09,29,11,49,3.90
2013,09,29,11,50,5.40
2013,09,29,11,51,8.10
2013,09,29,11,52,4.50
2013,09,29,11,53,4.90
2013,09,29,11,54,7.10
2013,09,29,11,55,5.50
2013,09,29,11,56,3.00
2013,09,29,11,57,4.50
2013,09,29,11,58,6.70
2013,09,29,11,59,8.90
2013,09,29,12,00,9.20
2013,09,29,12,01,8.70
2013,09,29,12,02,5.50
2013,09,29,12,03,3.50
2013,09,29,12,04,9.90
2013,09,29,12,05,7.70
2013,09,29,12,06,10.20
2013,09,29,12,07,6.50
2013,09,29,12,08,7.20
2013,09,29,12,09,9.40
2013,09,29,12,10,5.90
2013,09,29,12,11,8.30
2013,09,29,12,12,8.40
2013,09,29,12,13,9.40
2013,09,29,12,14,7.40
2013,09,29,12,15,4.50
2013,09,29,12,16,7.60
2013,09,29,12,17,4.30
2013,09,29,12,18,2.40
2013,09,29,12,19,7.30
2013,09,29,12,20,6.50
2013,09,29,12,21,3.60
2013,09,29,12,22,5.10
2013,09,29,12,23,6.10
2013,09,29,12,24,4.10
2013,09,29,12,25,4.80
2013,09,29,12,26,7.60
2013,09,29,12,27,8.60
2013,09,29,12,28,5.60
2013,09,29,12,29,9.70
2013,09,29,12,30,4.10
2013,09,29,12,31,5.80
2013,09,29,12,32,11.00
2013,09,29,12,33,3.70
2013,09,29,12,34,6.60
2013,09,29,12,35,8.60
2013,09,29,12,36,5.80
2013,09,29,12,37,8.90
2013,09,29,12,38,8.70
2013,09,29,12,39,8.60
2013,09,29,12,40,10.20
2013,09,29,12,41,8.70
2013,09,29,12,42,3.10
2013,09,29,12,43,10.70
2013,09,29,12,44,6.00
2013,09,29,12,45,9.80
2013,09,29,12,46,10.10
2013,09,29,12,47,8.60
2013,09,29,12,48,8.10
2013,09,29,12,49,9.30
2013,09,29,12,50,7.40
2013,09,29,12,51,10.90
2013,09,29,12,52,9.20
2013,09,29,12,53,9.50
2013,09,29,12,54,7.30
2013,09,29,12,55,2.40
2013,09,29,12,56,4.50
2013,09,29,12,57,4.80
2013,09,29,12,58,7.60
2013,09,29,12,59,10.20
2013,09,29,13,00,8.70
2013,09,29,13,01,9.00
2013,09,29,13,02,8.70
2013,09,29,13,03,12.80
2013,09,29,13,04,6.70
2013,09,29,13,05,8.70
2013,09,29,13,06,7.50
2013,09,29,13,07,4.80
2013,09,29,13,08,3.40
2013,09,29,13,09,3.30
2013,09,29,13,10,3.60
2013,09,29,13,11,4.40
2013,09,29,13,12,6.70
2013,09,29,13,13,7.80
2013,09,29,13,14,8.80
2013,09,29,13,15,12.90
2013,09,29,13,16,6.90
2013,09,29,13,17,7.80
2013,09,29,13,18,3.00
2013,09,29,13,19,6.40
2013,09,29,13,20,9.40
2013,09,29,13,21,8.30
2013,09,29,13,22,7.60
2013,09,29,13,23,2.90
2013,09,29,13,24,5.90
2013,09,29,13,25,10.00
2013,09,29,13,26,4.50
2013,09,29,13,27,11.60
2013,09,29,13,28,4.20
2013,09,29,13,29,7.20
2013,09,29,13,30,4.10
2013,09,29,13,31,8.10
2013,09,29,13,32,1.00
2013,09,29,13,33,2.90
2013,09,29,13,34,3.90
2013,09,29,13,35,12.00
2013,09,29,13,36,7.00
2013,09,29,13,37,12.10
2013,09,29,13,38,6.80
2013,09,29,13,39,4.30
2013,09,29,13,40,12.30
2013,09,29,13,41,8.50
2013,09,29,13,42,3.90
2013,09,29,13,43,1.20
2013,09,29,13,44,3.80
2013,09,29,13,45,10.70
2013,09,29,13,46,6.70
2013,09,29,13,47,8.10
2013,09,29,13,48,7.70
2013,09,29,13,49,11.60
2013,09,29,13,50,3.60
2013,09,29,13,51,4.50
2013,09,29,13,52,1.10
2013,09,29,13,53,8.80
2013,09,29,13,54,10.30
2013,09,29,13,55,7.80
2013,09,29,13,56,6.60
2013,09,29,13,57,9.30
2013,09,29,13,58,12.20
2013,09,29,13,59,8.00
2013,09,29,14,00,3.40
2013,09,29,14,01,11.80
2013,09,29,14,02,8.30
2013,09,29,14,03,5.80
2013,09,29,14,04,6.40
2013,09,29,14,05,11.00
2013,09,29,14,06,13.40
2013,09,29,14,07,11.70
2013,09,29,14,08,7.10
2013,09,29,14,09,9.80
2013,09,29,14,10,8.80
2013,09,29,14,11,7.40
2013,09,29,14,12,11.30
2013,09,29,14,13,11.00
2013,09,29,14,14,9.70
2013,09,29,14,15,7.00
2013,09,29,14,16,5.60
2013,09,29,14,17,8.50
2013,09,29,14,18,8.60
2013,09,29,14,19,7.20
2013,09,29,14,20,5.40
2013,09,29,14,21,8.60
2013,09,29,14,22,5.60
2013,09,29,14,23,6.40
2013,09,29,14,24,6.50
2013,09,29,14,25,7.60
2013,09,29,14,26,8.00
2013,09,29,14,27,7.00
2013,09,29,14,28,9.80
2013,09,29,14,29,4.60
2013,09,29,14,30,4.60
2013,09,29,14,31,7.10
2013,09,29,14,32,5.70
2013,09,29,14,33,10.90
2013,09,29,14,34,8.00
2013,09,29,14,35,9.90
2013,09,29,14,36,6.00
2013,09,29,14,37,3.10
2013,09,29,14,38,6.10
2013,09,29,14,39,3.30
2013,09,29,14,40,5.90
2013,09,29,14,41,3.10
2013,09,29,14,42,2.30
2013,09,29,14,43,9.90
2013,09,29,14,44,10.60
2013,09,29,14,45,8.50
2013,09,29,14,46,9.80
2013,09,29,14,47,11.60
2013,09,29,14,48,9.40
2013,09,29,14,49,8.10
2013,09,29,14,50,11.40
2013,09,29,14,51,10.30
2013,09,29,14,52,12.20
2013,09,29,14,53,11.30
2013,09,29,14,54,11.30
2013,09,29,14,55,12.90
2013,09,29,14,56,8.90
2013,09,29,14,57,6.40
2013,09,29,14,58,6.90
2013,09,29,14,59,10.40
2013,09,29,15,00,9.80
2013,09,29,15,01,9.50
2013,09,29,15,02,8.40
2013,09,29,15,03,8.70
2013,09,29,15,04,8.70
2013,09,29,15,05,10.70
2013,09,29,15,06,12.10
2013,09,29,15,07,8.90
2013,09,29,15,08,12.00
2013,09,29,15,09,3.60
2013,09,29,15,10,9.40
2013,09,29,15,11,7.80
2013,09,29,15,12,8.90
2013,09,29,15,13,8.00
2013,09,29,15,14,10.10
2013,09,29,15,15,13.30
2013,09,29,15,16,12.20
2013,09,29,15,17,12.40
2013,09,29,15,18,8.60
2013,09,29,15,19,12.70
2013,09,29,15,20,9.40
2013,09,29,15,21,13.60
2013,09,29,15,22,11.20
2013,09,29,15,23,11.40
2013,09,29,15,24,19.80
2013,09,29,15,25,9.60
2013,09,29,15,26,15.80
2013,09,29,15,27,9.80
2013,09,29,15,28,10.00
2013,09,29,15,29,8.20
2013,09,29,15,30,11.60
2013,09,29,15,31,6.00
2013,09,29,15,32,12.50
2013,09,29,15,33,12.90
2013,09,29,15,34,9.70
2013,09,29,15,35,6.30
2013,09,29,15,36,10.30
2013,09,29,15,37,8.60
2013,09,29,15,38,10.00
2013,09,29,15,39,13.20
2013,09,29,15,40,9.20
2013,09,29,15,41,11.00
2013,09,29,15,42,12.70
2013,09,29,15,43,15.90
2013,09,29,15,44,14.40
2013,09,29,15,45,10.60
2013,09,29,15,46,15.60
2013,09,29,15,47,13.00
2013,09,29,15,48,7.00
2013,09,29,15,49,8.60
2013,09,29,15,50,12.20
2013,09,29,15,51,16.40
2013,09,29,15,52,7.50
2013,09,29,15,53,16.00
2013,09,29,15,54,8.50
2013,09,29,15,55,8.10
2013,09,29,15,56,8.10
2013,09,29,15,57,8.20
2013,09,29,15,58,4.80
2013,09,29,15,59,14.20
2013,09,29,16,00,11.00
2013,09,29,16,01,10.70
2013,09,29,16,02,10.60
2013,09,29,16,03,12.00
2013,09,29,16,04,7.00
2013,09,29,16,05,9.90
2013,09,29,16,06,9.40
2013,09,29,16,07,5.10
2013,09,29,16,08,9.00
2013,09,29,16,09,14.00
2013,09,29,16,10,13.40
2013,09,29,16,11,8.10
2013,09,29,16,12,12.90
2013,09,29,16,13,13.70
2013,09,29,16,14,11.30
2013,09,29,16,15,11.20
2013,09,29,16,16,8.70
2013,09,29,16,17,5.90
2013,09,29,16,18,11.30
2013,09,29,16,19,10.60
2013,09,29,16,20,12.10
2013,09,29,16,21,11.80
2013,09,29,16,22,12.10
2013,09,29,16,23,11.00
2013,09,29,16,24,10.30
2013,09,29,16,25,13.00
2013,09,29,16,26,6.80
2013,09,29,16,27,10.70
2013,09,29,16,28,10.90
2013,09,29,16,29,7.70
2013,09,29,16,30,18.50
2013,09,29,16,31,11.70
2013,09,29,16,32,8.70
2013,09,29,16,33,14.20
2013,09,29,16,34,15.40
2013,09,29,16,35,13.50
2013,09,29,16,36,13.70
2013,09,29,16,37,8.30
2013,09,29,16,38,15.60
2013,09,29,16,39,7.90
2013,09,29,16,40,20.50
2013,09,29,16,41,12.80
2013,09,29,16,42,5.80
2013,09,29,16,43,14.80
2013,09,29,16,44,10.70
2013,09,29,16,45,17.20
2013,09,29,16,46,12.60
2013,09,29,16,47,13.80
2013,09,29,16,48,10.20
2013,09,29,16,49,11.30
2013,09,29,16,50,14.00
2013,09,29,16,51,16.80
2013,09,29,16,52,12.50
2013,09,29,16,53,11.40
2013,09,29,16,54,10.20
2013,09,29,16,55,11.10
2013,09,29,16,56,7.70
2013,09,29,16,57,14.60
2013,09,29,16,58,11.50
2013,09,29,16,59,9.40
2013,09,29,17,00,11.00
2013,09,29,17,01,6.90
2013,09,29,17,02,14.60
2013,09,29,17,03,10.70
2013,09,29,17,04,8.70
2013,09,29,17,05,6.80
2013,09,29,17,06,7.40
2013,09,29,17,07,14.00
2013,09,29,17,08,14.30
2013,09,29,17,09,11.80
2013,09,29,17,10,13.50
2013,09,29,17,11,20.20
2013,09,29,17,12,19.90
2013,09,29,17,13,8.70
2013,09,29,17,14,7.40
2013,09,29,17,15,14.40
2013,09,29,17,16,8.50
2013,09,29,17,17,11.60
2013,09,29,17,18,15.40
2013,09,29,17,19,11.30
2013,09,29,17,20,18.20
2013,09,29,17,21,17.30
2013,09,29,17,22,14.90
2013,09,29,17,23,16.70
2013,09,29,17,24,11.70
2013,09,29,17,25,8.40
2013,09,29,17,26,12.60
2013,09,29,17,27,17.30
2013,09,29,17,28,16.00
2013,09,29,17,29,16.10
2013,09,29,17,30,12.70
2013,09,29,17,31,8.10
2013,09,29,17,32,11.90
2013,09,29,17,33,9.90
2013,09,29,17,34,9.40
2013,09,29,17,35,11.60
2013,09,29,17,36,14.00
2013,09,29,17,37,21.10
2013,09,29,17,38,15.70
2013,09,29,17,39,16.70
2013,09,29,17,40,16.40
2013,09,29,17,41,16.20
2013,09,29,17,42,11.00
2013,09,29,17,43,9.40
2013,09,29,17,44,16.20
2013,09,29,17,45,14.10
2013,09,29,17,46,10.80
2013,09,29,17,47,12.60
2013,09,29,17,48,13.10
2013,09,29,17,49,18.00
2013,09,29,17,50,10.90
2013,09,29,17,51,18.90
2013,09,29,17,52,12.00
2013,09,29,17,53,11.00
2013,09,29,17,54,11.00